User: anonymous   Login
Location: Melbourne
(37.8170°S, 144.9670°E)
Time: 22:26:40
(UTC+11:00)
Language:

ERBS - Orbit

View from above orbital plane
View from above orbital plane
View from above satellite
View from above satellite

Ground track
Ground track

The orbit data is extracted from the following two-line orbital elements,

1 15354U 84108B   17329.07018490  .00003027  00000-0  71970-4 0  9990
2 15354  57.0063 165.1692 0015737  66.0711 294.1991 15.44859938823054
Epoch (UTC): 25 November 2017 01:41:03
Eccentricity: 0.0015737
inclination: 57.0063°
perigee height: 421 km
apogee height: 442 km
right ascension of ascending node: 165.1692°
argument of perigee: 66.0711°
revolutions per day: 15.44859938
mean anomaly at epoch: 294.1991°
orbit number at epoch: 82305

The dashed part of the orbit path shows where the satellite is in the earth's shadow,  

DLR